Hobbs, NM

7:26 PM MDT on June 26, 2017 (GMT -0600)
Lea County Regional

Weather History for KHOB - March, 2014

Change the Weather History Date:

Sunday, March 30, 2014

  Actual Average Record
Temperature  
Mean Temperature 64 °F -  
Max Temperature 82 °F 69 °F 86 °F (2012)
Min Temperature 46 °F 42 °F 30 °F (1958)
Degree Days  
Heating Degree Days 1    
Growing Degree Days 14 (Base 50)    
Moisture  
Dew Point 35 °F    
Average Humidity 35    
Maximum Humidity 54    
Minimum Humidity 16    
Precipitation  
Precipitation 0.00 in - - ()
Sea Level Pressure  
Sea Level Pressure 29.95 in    
Wind  
Wind Speed 12 mph (SSE)    
Max Wind Speed 25 mph    
Max Gust Speed 31 mph    
Visibility 10 miles    
Events      
Averages and records for this station are not official NWS values.
T = Trace of Precipitation, MM = Missing Value Source: NWS Daily Summary

Daily Weather History Graph

Daily Weather History Graph

Search for Another Location

Airport or City:

Trip Planner

Search our weather history database for the weather conditions in past years. The results will help you decide how hot, cold, wet, or windy it might be!

Date:

Astronomy

Mar. 30, 2014 Rise Set
Actual Time 6:43 AM MDT 7:11 PM MDT
Civil Twilight 6:18 AM MDT 7:36 PM MDT
Nautical Twilight 5:49 AM MDT 8:05 PM MDT
Astronomical Twilight 5:20 AM MDT 8:34 PM MDT
Moon 6:30 AM MDT (3/30) 7:24 PM MDT (3/30)
Length of Visible Light 13h 17m
Length of Day
12h 28m
Waning Crescent, 0% of the Moon is Illuminated
Mar 30
Waning Crescent
Mar 30
New
Apr 7
First Quarter
Apr 15
Full
Apr 22
Last Quarter

Hourly Weather History & Observations

Time (MDT) Temp. Windchill Dew Point Humidity Pressure Visibility Wind Dir Wind Speed Gust Speed Precip Events Conditions
12:15 AM 51.8 °F - 26.6 °F 38% 30.16 in 10.0 mi SE 4.6 mph - N/A   Clear
12:35 AM 51.8 °F - 26.6 °F 38% 30.16 in 10.0 mi SE 4.6 mph - N/A   Clear
12:55 AM 50.0 °F - 26.6 °F 40% 30.15 in 10.0 mi ESE 5.8 mph - N/A   Clear
1:15 AM 50.0 °F - 28.4 °F 43% 30.15 in 10.0 mi SE 4.6 mph - N/A   Clear
1:35 AM 50.0 °F - 26.6 °F 40% 30.14 in 10.0 mi ESE 5.8 mph - N/A   Clear
1:55 AM 48.2 °F - 26.6 °F 43% 30.13 in 10.0 mi SE 6.9 mph - N/A   Clear
2:15 AM 46.4 °F 42.9 °F 26.6 °F 46% 30.13 in 10.0 mi ESE 6.9 mph - N/A   Clear
2:35 AM 46.4 °F 44.3 °F 26.6 °F 46% 30.12 in 10.0 mi ESE 4.6 mph - N/A   Clear
2:55 AM 46.4 °F 44.3 °F 26.6 °F 46% 30.11 in 10.0 mi East 4.6 mph - N/A   Clear
3:15 AM 46.4 °F 45.2 °F 26.6 °F 46% 30.10 in 10.0 mi ESE 3.5 mph - N/A   Clear
3:35 AM 46.4 °F 43.5 °F 26.6 °F 46% 30.09 in 10.0 mi ESE 5.8 mph - N/A   Clear
3:55 AM 46.4 °F 42.9 °F 26.6 °F 46% 30.09 in 10.0 mi SSE 6.9 mph - N/A   Clear
5:50 AM 48.2 °F - 32.0 °F 54% 30.07 in 10.0 mi SSE 13.8 mph - N/A   Clear
6:50 AM 48.2 °F - 32.0 °F 54% 30.08 in 10.0 mi South 10.4 mph - N/A   Clear
7:50 AM 53.6 °F - 32.0 °F 44% 30.08 in 10.0 mi South 17.3 mph - N/A   Clear
8:50 AM 57.2 °F - 35.6 °F 44% 30.07 in 10.0 mi South 18.4 mph 24.2 mph N/A   Clear
9:50 AM 64.4 °F - 35.6 °F 34% 30.06 in 10.0 mi South 17.3 mph - N/A   Clear
10:50 AM 68.0 °F - 35.6 °F 30% 30.04 in 10.0 mi South 18.4 mph 24.2 mph N/A   Clear
11:50 AM 73.4 °F - 35.6 °F 25% 30.01 in 10.0 mi South 19.6 mph 25.3 mph N/A   Clear
12:50 PM 75.2 °F - 35.6 °F 24% 29.98 in 10.0 mi South 19.6 mph 27.6 mph N/A   Clear
1:50 PM 78.8 °F - 35.6 °F 21% 29.93 in 10.0 mi South 18.4 mph 29.9 mph N/A   Clear
2:50 PM 82.4 °F - 32.0 °F 16% 29.88 in 10.0 mi South 17.3 mph 31.1 mph N/A   Clear
3:50 PM 82.4 °F - 35.6 °F 19% 29.85 in 10.0 mi South 25.3 mph 31.1 mph N/A   Clear
4:50 PM 78.8 °F - 37.4 °F 23% 29.82 in 10.0 mi South 21.9 mph 28.8 mph N/A   Clear
5:15 PM 78.8 °F - 37.4 °F 23% 29.82 in 10.0 mi SSE 23.0 mph 28.8 mph N/A   Clear
5:35 PM 78.8 °F - 37.4 °F 23% 29.82 in 10.0 mi SE 25.3 mph 29.9 mph N/A   Clear
5:50 PM 77.0 °F - 37.4 °F 24% 29.82 in 10.0 mi SSE 21.9 mph 29.9 mph N/A   Clear
5:55 PM 78.8 °F - 37.4 °F 23% 29.81 in 10.0 mi SSE 19.6 mph 25.3 mph N/A   Clear
6:15 PM 77.0 °F - 37.4 °F 24% 29.81 in 10.0 mi SE 23.0 mph 29.9 mph N/A   Clear
6:35 PM 75.2 °F - 37.4 °F 25% 29.81 in 10.0 mi SE 21.9 mph 29.9 mph N/A   Clear
6:55 PM 73.4 °F - 39.2 °F 29% 29.82 in 10.0 mi SE 17.3 mph 25.3 mph N/A   Clear
7:15 PM 73.4 °F - 39.2 °F 29% 29.81 in 10.0 mi SE 18.4 mph 21.9 mph N/A   Clear
7:35 PM 71.6 °F - 39.2 °F 31% 29.81 in 10.0 mi SE 19.6 mph 26.5 mph N/A   Clear
7:55 PM 71.6 °F - 39.2 °F 31% 29.82 in 10.0 mi SE 18.4 mph 26.5 mph N/A   Clear
8:15 PM 69.8 °F - 39.2 °F 33% 29.83 in 10.0 mi SE 18.4 mph 23.0 mph N/A   Clear
8:35 PM 68.0 °F - 39.2 °F 35% 29.83 in 10.0 mi SE 19.6 mph 24.2 mph N/A   Clear
8:55 PM 68.0 °F - 39.2 °F 35% 29.84 in 10.0 mi SSE 16.1 mph 24.2 mph N/A   Clear
9:15 PM 68.0 °F - 39.2 °F 35% 29.85 in 10.0 mi SSE 17.3 mph 31.1 mph N/A   Clear
9:35 PM 68.0 °F - 39.2 °F 35% 29.85 in 10.0 mi SSE 17.3 mph 23.0 mph N/A   Clear
9:55 PM 66.2 °F - 39.2 °F 37% 29.86 in 10.0 mi SSE 15.0 mph - N/A   Clear
10:15 PM 66.2 °F - 41.0 °F 40% 29.86 in 10.0 mi SSE 13.8 mph - N/A   Clear
10:35 PM 66.2 °F - 41.0 °F 40% 29.86 in 10.0 mi SSE 16.1 mph 24.2 mph N/A   Clear
10:55 PM 64.4 °F - 41.0 °F 42% 29.86 in 10.0 mi SSE 18.4 mph 23.0 mph N/A   Clear
11:15 PM 64.4 °F - 41.0 °F 42% 29.86 in 10.0 mi SSE 18.4 mph 23.0 mph N/A   Clear
11:35 PM 64.4 °F - 41.0 °F 42% 29.86 in 10.0 mi SSE 18.4 mph - N/A   Clear
11:55 PM 64.4 °F - 41.0 °F 42% 29.86 in 10.0 mi SSE 18.4 mph 26.5 mph N/A   Clear